Weather History for Miramar MCAS, CA

Change the Weather History Date:

Friday, March 1, 2013

  Actual Average Record
Temperature  
Mean Temperature 65 °F -  
Max Temperature 82 °F 62 °F 82 °F (2013)
Min Temperature 48 °F 44 °F 39 °F (1997)
Growing Degree Days 15 (Base 50)    
Moisture  
Dew Point 24 °F    
Average Humidity 26    
Maximum Humidity 43    
Minimum Humidity 8    
Precipitation  
Precipitation 0.00 in - - ()
Sea Level Pressure  
Sea Level Pressure 30.20 in    
Wind  
Wind Speed 5 mph (NNE)    
Max Wind Speed 13 mph    
Max Gust Speed -    
Visibility 8 miles    
Events      
Averages and records for this station are not official NWS values.
T = Trace of Precipitation, MM = Missing Value Source: NWS Daily Summary

Daily Weather History Graph

Daily Weather History Graph

Search for Another Location

Airport:

Trip Planner

Search our weather history database for the weather conditions in past years. The results will help you decide how hot, cold, wet, or windy it might be!

Date:

Astronomy

Mar. 01, 2013 Rise Set
Actual Time 6:16 AM PST 5:46 PM PST
Civil Twilight 5:51 AM PST 6:10 PM PST
Nautical Twilight 5:22 AM PST 6:39 PM PST
Astronomical Twilight 4:54 AM PST 7:08 PM PST
Moon 10:06 PM PST (3/1) 8:21 AM PST (3/1)
Length of Visible Light 12h 19m
Length of Day
11h 30m
Waning Gibbous, 82% of the Moon is Illuminated
Mar 1
Waning Gibbous
Mar 4
Last Quarter
Mar 11
New
Mar 19
First Quarter
Mar 27
Full

Hourly Weather History & Observations

Time (PST) Temp. Dew Point Humidity Pressure Visibility Wind Dir Wind Speed Gust Speed Precip Events Conditions
12:55 AM 50.0 °F 21.9 °F 33% 30.27 in 10.0 mi Calm Calm - N/A   Clear
1:55 AM 50.0 °F 23.0 °F 35% 30.26 in 10.0 mi NE 4.6 mph - N/A   Clear
2:55 AM 50.0 °F 23.0 °F 35% 30.24 in 10.0 mi ENE 5.8 mph - N/A   Clear
3:55 AM 48.9 °F 23.0 °F 36% 30.24 in 10.0 mi East 5.8 mph - N/A   Clear
4:55 AM 48.0 °F 24.1 °F 39% 30.24 in 10.0 mi Calm Calm - N/A   Clear
5:55 AM 48.0 °F 24.1 °F 39% 30.24 in 10.0 mi East 5.8 mph - N/A   Clear
6:55 AM 53.1 °F 27.0 °F 37% 30.22 in 7.0 mi East 6.9 mph - N/A   Clear
7:55 AM 66.0 °F 25.0 °F 21% 30.22 in 10.0 mi ENE 4.6 mph - N/A   Clear
8:55 AM 75.0 °F 18.0 °F 12% 30.23 in 10.0 mi SSW 5.8 mph - N/A   Clear
9:55 AM 77.0 °F 15.1 °F 10% 30.23 in 7.0 mi West 4.6 mph - N/A   Clear
10:55 AM 82.0 °F 16.0 °F 8% 30.21 in 7.0 mi NNW 3.5 mph - N/A   Clear
11:55 AM 82.0 °F 18.0 °F 9% 30.19 in 10.0 mi NW 5.8 mph - N/A   Clear
12:55 PM 82.0 °F 18.0 °F 9% 30.17 in 7.0 mi West 9.2 mph - N/A   Clear
1:55 PM 81.0 °F 19.9 °F 10% 30.15 in 7.0 mi WNW 10.4 mph - N/A   Clear
2:55 PM 79.0 °F 18.0 °F 10% 30.14 in 7.0 mi WNW 12.7 mph - N/A   Clear
3:55 PM 78.1 °F 25.0 °F 14% 30.14 in 7.0 mi WNW 8.1 mph - N/A   Clear
4:55 PM 75.9 °F 23.0 °F 14% 30.14 in 7.0 mi WNW 9.2 mph - N/A   Clear
5:55 PM 69.1 °F 25.0 °F 19% 30.15 in 7.0 mi West 3.5 mph - N/A   Partly Cloudy
6:55 PM 64.0 °F 26.1 °F 24% 30.16 in 7.0 mi Calm Calm - N/A   Clear
7:55 PM 55.0 °F 33.1 °F 43% 30.17 in 7.0 mi NE 4.6 mph - N/A   Clear
8:55 PM 55.0 °F 30.9 °F 40% 30.18 in 7.0 mi ENE 6.9 mph - N/A   Clear
9:55 PM 53.1 °F 30.9 °F 43% 30.19 in 7.0 mi East 3.5 mph - N/A   Clear
10:55 PM 53.1 °F 30.0 °F 41% 30.18 in 7.0 mi East 6.9 mph - N/A   Clear
11:55 PM 55.9 °F 28.9 °F 36% 30.19 in 7.0 mi East 8.1 mph - N/A   Clear